Overview Statistics Trail Chart Weather Telemetry Raw packets
 

This is the latest recevied weather packets stored in our database for station/object R1ZCU-14. If no packets are shown the sender has not sent any weather packets the latest 10 day(s).

<< 45 46 47 48 49 50 51 >>
Time Temp. Humidity Pressure Rain* Wind** Luminosity Snow
1787660822 14.44° C - 1009.4 hPa - - - -
1787660222 15° C - 1009.1 hPa - - - -
1787659621 16.11° C 99% 1009 hPa - - - -
1787659021 16.11° C 99% 1008.8 hPa - - - -
1787658420 16.11° C 92% 1008.8 hPa - - - -
1787657820 17.22° C 84% 1008.6 hPa - - - -
1787657219 17.22° C 81% 1008.5 hPa - - - -
1787656619 17.22° C 81% 1008.4 hPa - - - -
1787656018 17.78° C 75% 1008.5 hPa - - - -
1787655418 18.89° C 69% 1008.4 hPa - - - -
1787654817 18.89° C 69% 1008.3 hPa - - - -
1787654217 18.33° C 72% 1008.3 hPa - - - -
1787653616 17.78° C 68% 1008.3 hPa - - - -
1787653016 17.22° C 71% 1008.3 hPa - - - -
1787652415 16.11° C 75% 1008.3 hPa - - - -
1787651815 16.11° C 76% 1008.2 hPa - - - -
1787651214 16.67° C 74% 1008.1 hPa - - - -
1787650614 15.56° C 78% 1008.2 hPa - - - -
1787650013 16.11° C 75% 1008.3 hPa - - - -
1787649413 15.56° C 77% 1008.2 hPa - - - -
1787648812 14.44° C 87% 1008.2 hPa - - - -
1787648212 14.44° C 90% 1008.2 hPa - - - -
1787647611 14.44° C 91% 1008.2 hPa - - - -
1787647011 13.33° C 96% 1008.2 hPa - - - -
1787646410 12.78° C - 1008.1 hPa - - - -

* Rain since midnight (hover to see other rain measurements)
** Current wind speed in m/s (hover to see current wind gust speed)